User: anonymous   Login
Location: Laverne
(36.7100°N, 99.8930°W)
Time: 06:28:08
(UTC-06:00)
Language:

Iridium 32 - Orbit

View from above orbital plane
View from above orbital plane
View from above satellite
View from above satellite

Ground track
Ground track

The orbit data is extracted from the following two-line orbital elements,

1 24945U 97051B   15059.55643217  .00000196  00000-0  62929-4 0  9997
2 24945 086.3932 278.0641 0001919 087.0446 273.0969 14.34221114914074
Epoch (UTC): 28 February 2015 13:21:15
Eccentricity: 0.0001919
inclination: 86.3932°
perigee height: 776 km
apogee height: 779 km
right ascension of ascending node: 278.0641°
argument of perigee: 87.0446°
revolutions per day: 14.34221114
mean anomaly at epoch: 273.0969°
orbit number at epoch: 91407

The dashed part of the orbit path shows where the satellite is in the earth's shadow,  

DLR